Date,TemperatureHighF,TemperatureAvgF,TemperatureLowF,DewpointHighF,DewpointAvgF,DewpointLowF,HumidityHigh,HumidityAvg,HumidityLow,PressureMaxIn,PressureMinIn,WindSpeedMaxMPH,WindSpeedAvgMPH,GustSpeedMaxMPH,PrecipitationSumIn
2013-9-1,83.2,73.9,66.3,73.6,69.2,64.6,96,86,67,29.81,29.71,11,3,14,0.01
2013-9-2,82.3,73.5,66.5,71.7,67.3,63.7,95,82,55,29.89,29.78,8,3,11,0.00
2013-9-3,75.0,66.5,58.7,63.5,57.3,53.7,92,74,52,30.06,29.89,9,3,14,0.00
2013-9-4,81.3,66.2,52.0,63.0,57.6,50.6,96,76,48,30.16,30.05,5,1,9,0.00
2013-9-5,85.3,63.5,56.6,67.1,59.5,55.2,95,88,48,30.17,30.12,3,0,9,0.00
2013-9-6,88.0,72.3,59.8,70.1,62.4,55.5,92,73,47,30.20,30.06,4,1,9,0.00
2013-9-7,84.4,72.9,60.8,69.7,65.0,58.8,94,78,52,30.06,29.94,9,3,13,0.01
2013-9-8,85.0,74.8,67.4,74.1,69.3,65.7,95,84,64,29.96,29.90,6,1,7,0.12
2013-9-9,89.2,77.8,66.5,74.5,70.1,65.0,96,79,58,29.99,29.91,10,4,14,0.00
2013-9-10,92.2,79.3,70.8,75.8,72.1,67.7,94,80,51,30.10,29.97,15,4,23,0.42
2013-9-11,90.8,80.1,69.4,74.4,70.4,66.7,95,74,46,30.12,30.00,10,4,15,0.01
2013-9-12,79.7,74.2,66.2,72.9,67.7,54.0,94,81,53,30.01,29.88,9,5,12,0.14
2013-9-13,66.9,60.6,53.8,56.5,50.4,46.1,92,70,49,30.10,29.97,12,4,19,0.00
2013-9-14,75.1,57.5,44.8,51.0,47.1,42.3,93,71,37,30.20,30.08,4,1,8,0.00
2013-9-15,74.8,61.1,44.9,60.3,51.5,43.3,95,74,42,30.13,30.02,9,3,13,0.00
2013-9-16,70.8,63.3,56.5,60.5,56.6,51.5,87,79,64,30.27,30.05,6,3,11,0.00
2013-9-17,75.6,62.2,51.3,60.2,54.0,49.1,93,76,51,30.30,30.14,5,1,11,0.00
2013-9-18,78.5,65.5,57.3,68.3,61.1,55.0,93,86,68,30.14,30.02,8,2,10,0.00
2013-9-19,80.3,71.7,65.8,72.5,68.1,64.0,95,89,75,30.09,29.92,9,4,12,0.96
2013-9-20,76.7,72.2,67.3,70.2,68.0,65.5,95,87,77,29.95,29.80,10,5,16,0.26
2013-9-21,69.4,61.3,52.7,65.4,53.6,48.5,94,78,48,29.90,29.77,11,5,16,0.02
2013-9-22,70.7,56.6,44.7,53.7,49.6,43.2,96,79,50,30.02,29.90,6,1,9,0.00
2013-9-23,72.6,57.0,42.8,53.7,48.9,41.5,96,77,47,30.10,30.01,6,1,15,0.01
2013-9-24,79.8,62.0,47.9,63.8,55.1,46.0,94,80,54,30.05,29.87,4,1,9,0.00
2013-9-25,81.0,67.9,57.9,66.0,60.3,55.7,94,78,52,29.91,29.84,5,1,8,0.00
2013-9-26,83.9,64.1,50.8,59.9,54.4,49.1,95,74,38,30.05,29.91,6,1,10,0.00
2013-9-27,82.5,64.3,50.0,63.2,55.7,48.6,96,77,43,30.16,30.05,4,1,8,0.01
2013-9-28,81.1,65.9,52.1,63.6,56.7,50.7,96,75,44,30.14,30.02,9,3,16,0.00
2013-9-29,66.7,63.0,59.2,62.6,59.9,55.8,95,90,73,30.03,29.97,8,4,18,0.33
2013-9-30,68.9,63.6,60.0,64.6,61.5,58.4,96,93,84,30.01,29.94,7,2,11,0.01